Flag for U.S.A. Weather past 2 weeks in Albuquerque, New Mexico, U.S.A.

61 °F

Passing clouds.

Feels Like: 61 °F
Forecast: 50 / 77 °F
Wind: 5 mph from Southeast

Location: Albuquerque International Airport

Current Time: Oct 9, 2015 at 10:40:52 PM

Latest Report: Oct 9, 2015 at 9:52 PM

Visibility: 10 mi

Pressure: 30.24 "Hg (25.30 "Hg at 1510m altitude)

Humidity: 62%

Dew point: 48 °F

Location of AlbuquerqueLocation

Historic Weather in Albuquerque — Graph


Albuquerque temperature yesterday

Maximum temperature yesterday: 67 °F (at 2:52 PM)
Minimum temperature yesterday: 51 °F (at 6:52 AM)
Average temperature yesterday: 59 °F

Past Weeks' High & Low Weather Summary

High90 °F (Sep 27, 4:52 PM)93% (Oct 7, 6:52 AM)30.25 "Hg (Oct 7, 6:52 AM)
Low49 °F (Oct 7, 5:52 AM)11% (Sep 27, 5:52 PM)29.56 "Hg (Oct 3, 3:52 PM)
Average68 °F47%29.95 "Hg
* Reported Sep 24 8:52 PM — Oct 9 8:52 PM, Albuquerque, Weather by CustomWeather, © 2015

Note: Actual official high and low records may vary slightly from our data, if they occured in-between our weather recording intervals... More about our weather records


Albuquerque weather history for previous 24 hours

Time TempWeatherWind HumidityBarometerVisibility
8:52 PM
Fri, Oct 9
63 °FPassing clouds.6 mph58%30.23 "Hg10 mi
7:52 PM64 °FPassing clouds.7 mph56%30.22 "Hg10 mi
6:52 PM66 °FPartly sunny.9 mph52%30.19 "Hg10 mi
5:52 PM68 °FPartly sunny.14 mph47%30.18 "Hg10 mi
4:52 PM71 °FPartly sunny.10 mph41%30.18 "Hg10 mi
3:52 PM71 °FPartly sunny.10 mph39%30.18 "Hg10 mi
2:52 PM72 °FPartly sunny.7 mph34%30.17 "Hg10 mi
1:52 PM72 °FPartly sunny.9 mph37%30.18 "Hg10 mi
12:52 PM70 °FPartly sunny.16 mph39%30.21 "Hg10 mi
11:52 AM69 °FScattered clouds.13 mph42%30.23 "Hg10 mi
10:52 AM66 °FPassing clouds.21 mph49%30.24 "Hg10 mi
9:52 AM62 °FScattered clouds.23 mph60%30.25 "Hg10 mi
8:52 AM61 °FBroken clouds.14 mph65%30.25 "Hg10 mi
7:52 AM59 °FPassing clouds.7 mph69%30.22 "Hg10 mi
6:52 AM60 °FMostly cloudy.7 mph67%30.19 "Hg10 mi
5:52 AM60 °FOvercast.8 mph67%30.18 "Hg10 mi
4:52 AM58 °FPassing clouds.10 mph72%30.17 "Hg10 mi
3:52 AM58 °FPassing clouds.10 mph72%30.14 "Hg10 mi
2:52 AM58 °FPassing clouds.16 mph72%30.14 "Hg10 mi
1:52 AM57 °FPassing clouds.12 mph74%30.17 "Hg10 mi
12:52 AM59 °FPassing clouds.7 mph67%30.15 "Hg10 mi
11:52 PM
Thu, Oct 8
58 °FPassing clouds.16 mph70%30.13 "Hg10 mi
10:52 PM61 °FPassing clouds.14 mph60%30.13 "Hg10 mi
Weather by CustomWeather, © 2015

See weather overviewHow to use our weather pages